This is the latest recevied weather packets stored in our database for station/object WP4PW. If no packets are shown the sender has not sent any weather packets the latest 10 day(s).
| Time | Temp. | Humidity | Pressure | Rain* | Wind** | Luminosity | Snow |
|---|---|---|---|---|---|---|---|
| 1778075840 | 29.44° C | 78% | 1023.4 hPa | 0 mm | - | 633 W/m² | - |
| 1778075536 | 29.44° C | 77% | 1023.3 hPa | 0 mm | - | 621 W/m² | - |
| 1778075233 | 29.44° C | 77% | 1023.2 hPa | 0 mm | - | 610 W/m² | - |
| 1778074929 | 30° C | 76% | 1023.3 hPa | 0 mm | - | 596 W/m² | - |
| 1778074627 | 29.44° C | 79% | 1023.2 hPa | 0 mm | - | 586 W/m² | - |
| 1778074323 | 28.89° C | 79% | 1023.3 hPa | 0 mm | - | 567 W/m² | - |
| 1778074021 | 29.44° C | 79% | 1023.4 hPa | 0 mm | - | 548 W/m² | - |
| 1778073717 | 28.89° C | 80% | 1023.2 hPa | 0 mm | - | 534 W/m² | - |
| 1778073415 | 30° C | 77% | 1023.1 hPa | 0 mm | - | 524 W/m² | - |
| 1778073111 | 29.44° C | 79% | 1023.2 hPa | 0 mm | - | 522 W/m² | - |
| 1778072808 | 29.44° C | 78% | 1023.1 hPa | 0 mm | - | 506 W/m² | - |
| 1778072505 | 28.89° C | 78% | 1023 hPa | 0 mm | - | 537 W/m² | - |
| 1778072204 | 28.89° C | 78% | 1023 hPa | 0 mm | - | 519 W/m² | - |
| 1778071901 | 29.44° C | 79% | 1022.9 hPa | 0 mm | - | 518 W/m² | - |
| 1778071599 | 28.89° C | 78% | 1022.7 hPa | 0 mm | - | 471 W/m² | - |
| 1778071296 | 28.89° C | 80% | 1022.7 hPa | 0 mm | - | 491 W/m² | - |
| 1778070993 | 29.44° C | 81% | 1022.6 hPa | 0 mm | - | 188 W/m² | - |
| 1778070692 | 28.89° C | 81% | 1022.9 hPa | 0 mm | - | 418 W/m² | - |
| 1778070388 | 28.89° C | 80% | 1022.9 hPa | 0 mm | - | 333 W/m² | - |
| 1778070086 | 28.33° C | 79% | 1022.7 hPa | 0 mm | - | 380 W/m² | - |
| 1778069784 | 28.89° C | 80% | 1022.7 hPa | 0 mm | - | 225 W/m² | - |
| 1778069480 | 28.89° C | 80% | 1022.7 hPa | 0 mm | - | 243 W/m² | - |
| 1778069178 | 28.33° C | 83% | 1022.6 hPa | 0 mm | - | 206 W/m² | - |
| 1778068875 | 27.78° C | 84% | 1022.4 hPa | 0 mm | - | 196 W/m² | - |
| 1778068574 | 28.33° C | 84% | 1022.6 hPa | 0 mm | - | 100 W/m² | - |
* Rain latest hour (hover to see other rain measurements)
** Current wind speed in m/s (hover to see current wind gust speed)